Home > Time Zones > World Clock > Weather > France > Metz > Past weeks

Flag for France Weather past 2 weeks in Metz, France

Now
43 °F

Partly sunny.


Feels Like: 37 °F
Forecast: 32 / 49 °F
Wind: 10 mph from North

Location: Metz-Nancy-Lorraine

Current Time: Mar 5, 2015 at 1:10:27 PM

Latest Report: Mar 5, 2015 at 12:30 PM


Visibility: N/A

Pressure: 30.63 "Hg

Humidity: 61%

Dew point: 30 °F

Location of MetzLocation

Historic Weather in Metz — Graph

°F

Metz temperature yesterday

Maximum temperature yesterday: 45 °F (at 2:00 PM)
Minimum temperature yesterday: 32 °F (at 7:30 AM)
Average temperature yesterday: 38 °F

Past Weeks' High & Low Weather Summary

 TemperatureHumidityPressure
High54 °F (Feb 20, 1:30 PM)100% (Feb 19, 3:30 AM)30.69 "Hg (Feb 19, 3:30 AM)
Low25 °F (Feb 19, 1:30 AM)43% (Feb 28, 3:30 PM)29.47 "Hg (Feb 21, 5:00 AM)
Average39 °F81%29.99 "Hg
* Reported Feb 18 12:00 Noon — Mar 5 12:00 Noon, Metz, Weather by CustomWeather, © 2015

Note: Actual official high and low records may vary slightly from our data, if they occured in-between our weather recording intervals... More about our weather records

Advertising

Metz weather history for previous 24 hours

 ConditionsComfort  
Time TempWeatherWind HumidityBarometerVisibility
12:00 PM
Thu, Mar 5
43 °FPartly sunny.10 mph61%30.63 "HgN/A
11:30 AM43 °FBroken clouds.12 mph61%30.63 "HgN/A
11:00 AM41 °FPassing clouds.9 mph66%30.66 "HgN/A
10:30 AM41 °FPartly sunny.9 mph66%30.63 "HgN/A
10:00 AM41 °FClear.10 mph66%30.66 "HgN/A
9:30 AM39 °FClear.6 mph75%30.66 "HgN/A
9:00 AM36 °FPassing clouds.2 mph87%30.63 "HgN/A
8:30 AM36 °FOvercast.2 mph87%30.63 "HgN/A
8:00 AM36 °FOvercast.3 mph81%30.63 "HgN/A
7:30 AM34 °FPartly sunny.2 mph87%30.63 "HgN/A
7:00 AM34 °FOvercast.6 mph87%30.60 "HgN/A
6:30 AM34 °FPassing clouds.5 mph87%30.60 "HgN/A
6:00 AM34 °FPassing clouds.5 mph87%30.60 "HgN/A
5:30 AM36 °FOvercast.6 mph81%30.57 "HgN/A
4:30 AM36 °FMostly cloudy.7 mph87%30.57 "HgN/A
4:00 AM36 °FMostly cloudy.7 mph81%30.57 "HgN/A
3:00 AM36 °FPartly cloudy.3 mph81%30.54 "HgN/A
2:30 AM34 °FOvercast.3 mph87%30.54 "HgN/A
2:00 AM34 °FPassing clouds.3 mph87%30.54 "HgN/A
1:30 AM34 °FPassing clouds.6 mph87%30.54 "HgN/A
1:00 AM34 °FPassing clouds.2 mph87%30.54 "HgN/A
12:30 AM36 °FClear.3 mph81%30.51 "HgN/A
12:00 AM36 °FClear.5 mph75%30.51 "HgN/A
11:30 PM
Wed, Mar 4
34 °FClear.3 mph81%30.51 "HgN/A
10:00 PM37 °FClear.9 mph75%30.48 "HgN/A
9:30 PM37 °FClear.12 mph75%30.48 "HgN/A
9:00 PM37 °FClear.10 mph75%30.45 "HgN/A
8:30 PM37 °FPassing clouds.8 mph75%30.45 "HgN/A
8:00 PM37 °FClear.8 mph75%30.42 "HgN/A
7:30 PM37 °FPartly cloudy.8 mph70%30.42 "HgN/A
7:00 PM39 °FPassing clouds.7 mph70%30.42 "HgN/A
6:30 PM39 °FPassing clouds.6 mph70%30.39 "HgN/A
6:00 PM41 °FClear.8 mph66%30.39 "HgN/A
5:30 PM41 °FClear.10 mph66%30.36 "HgN/A
5:00 PM43 °FQuite cool.9 mph61%30.36 "HgN/A
4:30 PM43 °FBroken clouds.15 mph61%30.36 "HgN/A
4:00 PM43 °FPartly sunny.14 mph66%30.36 "HgN/A
3:30 PM45 °FScattered clouds.16 mph61%30.33 "HgN/A
3:00 PM45 °FBroken clouds.13 mph66%30.33 "HgN/A
2:30 PM45 °FBroken clouds.14 mph61%30.33 "HgN/A
2:00 PM45 °FBroken clouds.14 mph66%30.33 "HgN/A
1:30 PM41 °FPartly sunny.10 mph81%30.33 "HgN/A
1:00 PM39 °FBroken clouds.12 mph87%30.36 "HgN/A
Weather by CustomWeather, © 2015

See weather overviewHow to use our weather pages